HORIZONS 2

Last updated on Sept. 20, 2020, 5:45 a.m. UTC

1 32388U 07063B   20263.91184222 -.00000197  00000-0  00000-0 0  9990
2 32388   0.0222 193.1964 0002441 337.0946 242.0802  1.00270231 46822
UTC
Height (km)
Latitude
Longitude
Inclination
Orbital Period
UTC large
Height (km)
Speed (km/s)
/
Latitude / Longitude
Inclination (degrees)
Orbital Period (minutes)
Azimuth
Elevation
Range (km)
Doppler Factor
iOS Compass Heading
iOS Angle

Next 30 passes for location: Hong Kong

Rise time Rise Azimuth (degrees) Set time Set Azimuth (degrees) Duration Max altitude (degrees)

No matching passes for this satellites